Location: Galgenhof
(48.7342°N, 10.7539°E)
Time: 10:32:20
(UTC+00:00)

Daily predictions for brighter satellites

Satellite Brightness Start Highest point End
(mag) Time Altitude Azimuth Time Altitude Azimuth Time Altitude Azimuth
NOSS 3-1 (A) 4.1 15:46:04 10° NW 15:53:20 69° NE 16:01:56 10° SE
Envisat 4.2 15:48:30 10° S 15:53:25 49° W 15:58:22 10° NNW
Cosmos 1743 Rocket 4.2 15:50:08 10° N 15:54:07 34° ENE 15:58:04 10° SE
NOSS 3-1 (C) 4.2 15:46:45 10° NW 15:54:08 86° SW 16:02:52 10° SE
ATLAS CENTAUR R/B 2.8 15:50:39 10° WSW 15:54:31 34° NW 15:58:40 10° NNE
USA 234 3.3 15:48:05 10° ESE 15:54:37 77° NNE 16:01:09 10° NW
COSMOS 2406 4.4 15:50:58 10° SSE 15:55:24 24° ESE 15:59:51 10° NE
NOSS 2-1 (D) 3.9 15:52:27 10° WSW 15:55:30 38° NW 15:58:45 10° NNE
COSMOS 2455 4.3 15:52:04 10° SE 15:55:57 18° ESE 15:59:51 10° ENE
NOAA 11 4.2 15:50:51 10° SSE 15:56:16 87° ENE 16:01:44 10° NNW
NOAA 12 4.2 15:51:53 10° SSE 15:57:07 61° ENE 16:02:22 10° N
Meteor 1-31 Rocket 3.9 15:55:43 10° S 15:59:23 48° W 16:03:06 10° NNW
Cosmos 1833 Rocket 3.5 15:57:11 10° SSE 16:02:08 33° ESE 16:07:06 10° NE
USA 308 3.4 15:58:21 10° W 16:02:30 48° NNW 16:06:38 10° ENE
ARGOS 4.4 16:00:12 10° ESE 16:03:59 20° ENE 16:07:46 10° NNE
Spot 1 4.4 16:00:21 10° NNE 16:04:59 62° ESE 16:09:52 10° S
Cosmos 1340 Rocket 2.8 16:05:53 10° N 16:09:56 62° ENE 16:13:58 10° SSE
Cosmos 1464 Rocket 4.1 16:03:44 10° S 16:10:07 82° E 16:16:32 10° N
SJ 16-02 3.1 16:06:20 10° NW 16:10:22 37° WSW 16:14:24 10° S
CZ-4C R/B 3.6 16:06:42 10° N 16:10:36 66° WNW 16:14:16 10° SSW
ISS -3.5 16:10:28 10° WNW 16:13:50 56° N 16:17:10 10° E
Cosmos 1606 3.0 16:13:04 10° SSW 16:16:49 68° WNW 16:20:36 10° N
CZ-2D R/B 4.1 16:13:57 10° SE 16:17:15 28° ENE 16:20:36 10° N
Nadezhda 4 Rocket 4.0 16:11:18 10° N 16:17:39 82° E 16:23:59 10° S
Lacrosse 5 rocket 2.4 16:14:44 10° NW 16:18:01 26° N 16:20:54 13° ENE
CZ-4B R/B 3.9 16:15:42 10° ESE 16:20:21 31° ENE 16:24:58 10° N
Cosmos 2360 4.3 16:14:50 10° NNW 16:20:32 60° ENE 16:26:11 10° SE
Meteor 1-20 Rocket 4.3 16:16:08 10° N 16:21:57 65° ENE 16:27:46 10° SSE
CZ-2C R/B 3.8 16:18:55 10° NE 16:22:48 21° E 16:26:38 10° SE
Cosmos 1500 Rocket 3.5 16:18:40 10° N 16:23:08 71° E 16:27:31 10° SSE
CZ-4C R/B 3.2 16:17:13 10° NW 16:23:44 45° NE 16:31:27 10° ESE
Cosmos 540 Rocket 4.2 16:19:26 10° SSE 16:23:58 33° ESE 16:28:32 10° NE
CZ-4B R/B 3.2 16:23:21 10° S 16:27:24 68° WSW 16:31:17 10° NNW
Cosmos 1500 3.9 16:25:19 10° N 16:28:39 30° ENE 16:31:58 10° SE
SMAP 3.0 16:24:27 10° SSE 16:29:05 75° ENE 16:33:45 10° N
USA 305 3.6 16:25:49 10° WNW 16:29:50 42° N 16:32:56 16° ENE
Cosmos 44 Rocket 4.5 16:26:11 10° NNW 16:30:14 24° NNE 16:33:01 15° ENE
CZ-2C R/B 3.4 16:26:23 10° S 16:31:16 63° WSW 16:36:01 10° NNW
Cosmos 1092 Rocket 4.0 16:26:05 10° N 16:32:25 65° ENE 16:38:42 10° SSE
Cosmos 468 Rocket 4.0 16:28:30 10° S 16:33:35 65° ESE 16:38:45 10° NNE
Cosmos 1898 Rocket 3.4 16:28:56 10° NNW 16:34:14 82° ENE 16:39:27 10° SSE
Cosmos 1805 Rocket 3.6 16:30:24 10° N 16:34:42 55° ENE 16:38:56 10° SSE
Sich 1 3.3 16:31:13 10° N 16:35:20 44° ENE 16:39:28 10° SSE
Cosmos 1933 3.5 16:32:54 10° S 16:36:50 52° E 16:40:47 10° NNE
Cosmos 1428 Rocket 4.5 16:31:04 10° N 16:37:09 61° ENE 16:43:13 10° SSE
Cosmos 2360 Rocket 3.9 16:36:49 10° N 16:39:24 13° NNE 16:40:27 12° NE
Cosmos 1842 Rocket 4.2 16:35:09 10° SSW 16:39:34 61° WNW 16:44:02 10° N
Cosmos 2221 3.4 16:35:31 10° SSW 16:39:41 51° WNW 16:43:55 10° N
PSLV R/B 3.6 16:38:47 10° SSE 16:42:24 60° ENE 16:46:06 10° N
SL-08 R/B 4.3 16:40:14 10° N 16:44:47 47° WNW 16:49:14 10° SW
Cosmos 2084 4.4 16:46:54 10° NW 16:51:05 51° SW 16:55:25 10° SSE
deb Chang Zheng 4 3.9 16:48:06 10° SE 16:52:10 42° ENE 16:56:16 10° N
AQUARIUS 4.3 16:48:13 10° S 16:52:42 77° WSW 16:57:14 10° NNW
Cosmos 1627 Rocket 4.4 16:46:56 10° N 16:53:09 77° E 16:59:16 10° SSE
H-2A R/B 1.9 16:49:56 10° SSE 16:55:04 68° ENE 17:00:06 10° N
Cosmos 2034 Rocket 4.4 16:50:18 10° SSW 16:56:25 66° WNW 17:02:34 10° N
Meteor 1-14 Rocket 4.4 16:50:54 10° N 16:56:33 50° ENE 17:02:16 10° SSE
NOSS 2-2 (C) 4.2 16:52:36 10° NW 16:57:36 75° NE 17:04:38 10° SE
Cosmos 1666 3.1 16:54:55 10° N 16:58:23 35° ENE 17:01:47 10° SE
ERBS 3.8 16:55:57 10° WNW 16:58:38 24° NNW 16:59:46 20° NNE
Cosmos 2322 Rocket 3.4 16:55:01 10° N 16:59:20 21° NE 17:00:05 21° NE
USA 306 3.6 16:58:01 10° WNW 17:02:03 40° N 17:03:44 27° NE
Cosmos 2279 Rocket 4.2 16:56:38 10° SSE 17:02:30 46° E 17:08:23 10° NNE
Cosmos 1697 Rocket 3.1 16:57:13 10° NNW 17:02:47 67° WSW 17:08:20 10° SSE
USA 267 3.3 16:58:13 19° NE 17:03:10 75° NNW 17:09:41 10° WSW
SJ-11-01 4.5 16:58:52 10° SE 17:03:26 49° ENE 17:08:01 10° N
Cosmos 2369 3.7 17:00:26 10° NNW 17:06:13 89° ENE 17:11:56 10° SSE
Cosmos 1980 Rocket 2.1 17:01:01 10° NNW 17:06:44 74° ENE 17:12:21 10° SE
COSMO-SKYMED 1 2.9 17:05:08 23° NE 17:07:28 44° E 17:11:37 10° S
MOS 1-B Rocket 4.0 17:01:51 10° NNE 17:07:40 64° ESE 17:14:12 10° S
Cosmos 1763 Rocket 3.8 17:03:27 10° SSW 17:08:28 65° WNW 17:13:30 10° NNE
Meteor 1-5 Rocket 4.4 17:02:51 10° N 17:08:46 56° ENE 17:14:34 10° SSE
Cosmos 1939 Rocket 4.5 17:05:06 10° SSW 17:08:58 38° W 17:12:49 10° NNW
SL-24 R/B - RUBIN 2 3.4 17:07:09 10° NW 17:11:45 86° NE 17:15:48 12° SE
Meteor 2-21 4.4 17:06:07 10° N 17:12:16 87° W 17:18:19 10° S
Cosmos 841 Rocket 3.4 17:08:46 10° S 17:13:53 68° ESE 17:17:15 22° NNE
Cosmos 1812 2.8 17:11:47 10° S 17:15:31 53° E 17:16:31 40° NE
Cosmos 1937 Rocket 4.0 17:10:27 10° NNW 17:15:44 64° WSW 17:20:59 10° S
SL-16 R/B 2.9 17:11:36 10° NNW 17:16:40 32° NE 17:17:26 30° ENE
Cosmos 1125 Rocket 4.2 17:12:23 10° N 17:17:02 31° NE 17:17:07 31° ENE
Cosmos 1634 Rocket 4.0 17:11:41 10° S 17:18:01 89° E 17:24:24 10° N
Cosmos 1633 Rocket 3.0 17:14:20 10° N 17:18:39 57° ENE 17:22:58 10° SSE
USA 307 3.6 17:16:22 10° WNW 17:20:26 40° N 17:21:20 35° NE
YAOGAN 1 3.8 17:22:20 25° NNE 17:22:20 25° NNE 17:24:30 10° N
Cosmos 2082 Rocket 2.2 17:15:52 10° SSW 17:21:28 63° ESE 17:24:27 28° NE
Cosmos 2026 Rocket 4.3 17:17:58 10° NNW 17:24:04 67° W 17:30:04 10° S
Cosmos 2333 Rocket 4.0 17:21:42 10° N 17:24:11 15° NNE 17:24:11 15° NNE
Okean O Rocket 1.5 17:25:29 10° SSE 17:29:55 84° ENE 17:34:25 10° NNW
Cosmos 372 Rocket 4.2 17:24:51 10° NNW 17:30:05 74° WSW 17:35:18 10° SSE
ATLAS 2AS CENTAUR R/B 4.2 17:24:08 10° WNW 17:30:18 25° N 17:33:28 19° NNE
Cosmos 2278 3.6 17:24:57 10° NNW 17:30:41 81° ENE 17:36:24 10° SSE
SKYMED 3 4.4 17:29:31 30° NNE 17:31:39 77° ESE 17:35:59 10° S
ATLAS CENTAUR R/B 3.9 17:32:33 10° NW 17:34:44 13° NNW 17:36:14 12° N
Cosmos 1151 Rocket 2.9 17:32:06 10° S 17:36:25 82° E 17:38:08 37° NNE
Cosmos 1782 3.6 17:32:37 10° SSW 17:36:32 52° WNW 17:39:43 15° N
Cosmos 1655 Rocket 4.0 17:30:20 10° N 17:36:39 56° ENE 17:42:53 10° SSE
USA 234 4.4 17:31:50 10° SSE 17:37:57 41° SW 17:44:05 10° WNW
COSMOS 2406 3.5 17:33:31 10° SW 17:39:14 65° WNW 17:43:05 21° NNE
COSMOS 2455 2.8 17:35:02 10° SSW 17:41:04 89° SE 17:43:55 34° NE
Meteor 2-15 4.4 17:36:27 10° S 17:42:24 57° E 17:45:42 27° NNE
USA 308 3.5 17:38:54 10° WNW 17:42:51 42° N 17:42:51 42° N
Cosmos 1666 Rocket 3.9 17:39:06 10° NNW 17:43:32 67° W 17:47:54 10° S
ARGOS 3.2 17:38:14 10° S 17:43:39 78° WSW 17:49:06 10° NNW
Cosmos 1833 Rocket 3.5 17:40:29 10° SW 17:45:53 47° NW 17:49:48 18° NNE
Cosmos 1470 Rocket 4.4 17:42:15 10° N 17:45:01 36° N 17:45:01 36° N
Cosmos 2180 Rocket 4.4 17:42:30 10° S 17:48:51 77° E 17:55:09 10° NNE
Meteor 2-6 Rocket 4.1 17:44:51 10° S 17:50:37 76° E 17:53:25 31° NNE
ISS -2.7 17:47:23 10° WNW 17:50:10 45° WSW 17:50:10 45° WSW
Cosmos 1328 Rocket 3.4 17:46:20 10° S 17:50:46 83° E 17:50:52 81° ENE
Cosmos 2219 Rocket 4.2 17:50:45 10° N 17:52:22 15° N 17:52:22 15° N
SKYMED 2 3.9 17:53:45 32° N 17:55:36 62° WNW 17:59:53 10° SSW
CZ-4 R/B 3.9 17:59:49 12° N 17:59:49 12° N 18:00:07 10° N
Lacrosse 5 rocket 2.1 17:53:45 10° NW 17:56:30 42° NNW 17:56:30 42° NNW
Landsat 5 3.6 18:00:26 66° SW 18:00:26 66° SW 18:03:59 10° SSW
NOAA 15 4.4 17:55:00 10° SSE 18:00:17 84° ENE 18:05:36 10° NNW
Cosmos 2298 Rocket 3.9 17:55:12 10° NNW 18:00:27 72° NE 18:00:27 72° NE
CZ-4B R/B 4.1 17:55:32 10° S 18:00:44 46° W 18:05:54 10° NNW
Cosmos 1570 Rocket 3.9 17:56:04 10° SSW 18:01:19 90° ESE 18:02:05 66° NNE
Meteor 2-8 Rocket 4.4 17:55:50 10° S 18:02:00 89° W 18:08:04 11° N
ATLAS CENTAUR R/B 2.6 17:55:24 10° WSW 18:02:58 54° NNW 18:03:22 52° NNW
GEOS 3 Rocket 3.5 18:02:08 55° SSE 18:03:21 85° SW 18:08:35 10° NW
SL-08 RB Rocket 4.0 17:58:54 10° S 18:03:31 68° WSW 18:08:08 10° NNW
CZ-2C R/B 3.0 17:59:22 16° N 18:03:32 61° WNW 18:08:36 10° SSW
Meteor 1-11 Rocket 3.6 18:02:27 10° N 18:07:51 74° NE 18:07:51 74° NE
Cosmos 1818 3.4 18:03:06 10° NW 18:08:38 88° SW 18:09:02 77° SSE
Meteor 1-10 Rocket 4.1 18:02:53 10° S 18:08:41 78° E 18:09:02 74° ENE
Cosmos 1814 Rocket 4.1 18:03:52 10° SSW 18:09:05 70° WNW 18:10:08 54° N
USA 305 4.1 18:06:08 10° WNW 18:08:56 35° NW 18:08:56 35° NW
Cosmos 44 Rocket 3.4 18:07:25 10° NW 18:11:47 68° NW 18:11:47 68° NW
CZ-4C R/B 3.3 18:05:38 10° NW 18:12:48 67° SW 18:20:10 14° SSE
Cosmos 2360 Rocket 3.6 18:19:32 10° NNW 18:22:13 26° N 18:22:13 26° N
Cosmos 2208 Rocket 4.4 18:28:46 10° SW 18:33:46 62° W 18:33:46 62° W
Cosmos 2322 Rocket 3.2 18:38:28 10° NNW 18:41:55 39° NNW 18:41:55 39° NNW
USA 267 3.8 18:45:34 45° N 18:45:45 45° N 18:51:55 10° WNW
SL-16 R/B 3.3 18:55:32 10° NW 18:59:21 39° WNW 18:59:21 39° WNW
Cosmos 2082 Rocket 3.8 19:01:07 10° WSW 19:05:59 28° NW 19:06:21 28° NW
Cosmos 2333 Rocket 4.4 19:05:00 10° NNW 19:06:11 16° NNW 19:06:11 16° NNW
ATLAS 2AS CENTAUR R/B 4.3 19:16:47 10° NW 19:20:53 27° NNW 19:20:53 27° NNW
